Time,TemperatureF,DewpointF,PressureIn,WindDirection,WindDirectionDegrees,WindSpeedMPH,WindSpeedGustMPH,Humidity,HourlyPrecipIn,Conditions,Clouds,dailyrainin,SoftwareType,DateUTC
2013-07-24 00:01:00,82.4,74.5,30.02,South,180,0.0,0.4,77,0.00,,,0.00,WUHU216HW,2013-07-24 04:01:00,
2013-07-24 00:02:00,82.4,74.5,30.02,SSW,203,0.4,0.4,77,0.00,,,0.00,WUHU216HW,2013-07-24 04:02:00,
2013-07-24 00:07:00,82.4,75.0,30.02,WSW,248,0.0,0.4,78,0.00,,,0.00,WUHU216HW,2013-07-24 04:07:00,
2013-07-24 00:12:00,82.4,75.0,30.02,WSW,248,0.0,0.2,78,0.00,,,0.00,WUHU216HW,2013-07-24 04:12:00,
2013-07-24 00:17:00,82.4,75.0,30.02,WSW,248,0.0,0.2,78,0.00,,,0.00,WUHU216HW,2013-07-24 04:17:00,
2013-07-24 00:22:00,82.3,74.8,30.02,West,270,0.0,0.0,78,0.00,,,0.00,WUHU216HW,2013-07-24 04:22:00,
2013-07-24 00:27:00,82.3,75.2,30.01,WSW,248,0.0,0.0,79,0.00,,,0.00,WUHU216HW,2013-07-24 04:27:00,
2013-07-24 00:32:00,82.1,75.0,30.01,WSW,248,0.0,0.2,79,0.00,,,0.00,WUHU216HW,2013-07-24 04:32:00,
2013-07-24 00:37:00,82.1,74.6,30.00,SW,225,0.0,0.4,78,0.00,,,0.00,WUHU216HW,2013-07-24 04:37:00,
2013-07-24 00:42:00,82.1,74.6,30.00,SW,225,0.0,0.4,78,0.00,,,0.00,WUHU216HW,2013-07-24 04:42:00,
2013-07-24 00:47:00,82.1,74.6,30.00,WSW,248,0.0,0.4,78,0.00,,,0.00,WUHU216HW,2013-07-24 04:47:00,
2013-07-24 00:52:00,81.9,74.4,30.00,WSW,248,0.0,0.4,78,0.00,,,0.00,WUHU216HW,2013-07-24 04:52:00,
2013-07-24 00:57:00,82.1,75.0,30.00,WSW,248,0.0,0.0,79,0.00,,,0.00,WUHU216HW,2013-07-24 04:57:00,
2013-07-24 01:03:00,81.9,74.8,30.00,WSW,248,0.0,0.2,79,0.00,,,0.00,WUHU216HW,2013-07-24 05:03:00,
2013-07-24 01:08:00,81.7,75.1,30.00,WSW,248,0.0,0.2,80,0.00,,,0.00,WUHU216HW,2013-07-24 05:08:00,
2013-07-24 01:13:00,81.7,74.6,30.00,WSW,248,0.0,0.0,79,0.00,,,0.00,WUHU216HW,2013-07-24 05:13:00,
2013-07-24 01:18:00,81.5,74.4,30.00,WSW,248,0.0,0.0,79,0.00,,,0.00,WUHU216HW,2013-07-24 05:18:00,
2013-07-24 01:23:00,81.5,74.4,29.99,WSW,248,0.0,0.0,79,0.00,,,0.00,WUHU216HW,2013-07-24 05:23:00,
2013-07-24 01:28:00,81.5,74.4,29.99,SSW,203,0.0,0.4,79,0.00,,,0.00,WUHU216HW,2013-07-24 05:28:00,
2013-07-24 01:33:00,81.5,74.9,29.99,SSW,203,0.0,0.4,80,0.00,,,0.00,WUHU216HW,2013-07-24 05:33:00,
2013-07-24 01:38:00,81.4,74.4,29.99,SSW,203,0.0,0.4,79,0.00,,,0.00,WUHU216HW,2013-07-24 05:38:00,
2013-07-24 01:44:00,81.4,74.7,29.99,SSW,203,0.0,0.4,80,0.00,,,0.00,WUHU216HW,2013-07-24 05:44:00,
2013-07-24 01:49:00,81.4,74.4,29.98,SSW,203,0.0,0.0,79,0.00,,,0.00,WUHU216HW,2013-07-24 05:49:00,
2013-07-24 01:54:00,81.2,74.2,29.98,SSW,203,0.0,0.0,79,0.00,,,0.00,WUHU216HW,2013-07-24 05:54:00,
2013-07-24 01:59:00,81.2,74.2,29.97,SSW,203,0.0,0.0,79,0.00,,,0.00,WUHU216HW,2013-07-24 05:59:00,
2013-07-24 02:04:00,81.2,74.2,29.97,SSW,203,0.0,0.0,79,0.00,,,0.00,WUHU216HW,2013-07-24 06:04:00,
2013-07-24 02:09:00,81.0,74.0,29.97,SSW,203,0.0,0.0,79,0.00,,,0.00,WUHU216HW,2013-07-24 06:09:00,
2013-07-24 02:14:00,81.0,74.3,29.97,SSW,203,0.0,0.0,80,0.00,,,0.00,WUHU216HW,2013-07-24 06:14:00,
2013-07-24 02:19:00,81.0,74.3,29.97,SSW,203,0.0,0.0,80,0.00,,,0.00,WUHU216HW,2013-07-24 06:19:00,
2013-07-24 02:24:00,81.0,74.3,29.96,SSW,203,0.0,0.0,80,0.00,,,0.00,WUHU216HW,2013-07-24 06:24:00,
2013-07-24 02:29:00,81.0,74.3,29.96,SSW,203,0.0,0.0,80,0.00,,,0.00,WUHU216HW,2013-07-24 06:29:00,
2013-07-24 02:34:00,80.8,74.5,29.96,WSW,248,0.0,0.0,81,0.00,,,0.00,WUHU216HW,2013-07-24 06:34:00,
2013-07-24 02:39:00,80.8,74.5,29.96,WSW,248,0.0,0.0,81,0.00,,,0.00,WUHU216HW,2013-07-24 06:39:00,
2013-07-24 02:44:00,80.6,74.4,29.96,WSW,248,0.9,0.9,81,0.00,,,0.00,WUHU216HW,2013-07-24 06:44:00,
2013-07-24 02:49:00,80.6,74.4,29.96,WSW,248,0.0,0.9,81,0.00,,,0.00,WUHU216HW,2013-07-24 06:49:00,
2013-07-24 02:55:00,80.6,74.0,29.96,WSW,248,0.0,0.7,80,0.00,,,0.00,WUHU216HW,2013-07-24 06:55:00,
2013-07-24 03:00:00,80.6,74.4,29.96,NW,315,0.0,1.3,81,0.00,,,0.00,WUHU216HW,2013-07-24 07:00:00,
2013-07-24 03:05:00,80.6,74.4,29.96,NW,315,0.4,1.3,81,0.00,,,0.00,WUHU216HW,2013-07-24 07:05:00,
2013-07-24 03:10:00,80.6,74.4,29.95,NW,315,0.0,0.4,81,0.00,,,0.00,WUHU216HW,2013-07-24 07:10:00,
2013-07-24 03:15:00,80.5,73.8,29.95,NW,315,0.0,0.2,80,0.00,,,0.00,WUHU216HW,2013-07-24 07:15:00,
2013-07-24 03:20:00,80.6,74.0,29.95,NW,315,0.2,0.2,80,0.00,,,0.00,WUHU216HW,2013-07-24 07:20:00,
2013-07-24 03:25:00,80.5,73.8,29.95,NW,315,0.0,0.2,80,0.00,,,0.00,WUHU216HW,2013-07-24 07:25:00,
2013-07-24 03:30:00,80.5,73.8,29.95,NW,315,0.0,0.0,80,0.00,,,0.00,WUHU216HW,2013-07-24 07:30:00,
2013-07-24 03:35:00,80.5,73.8,29.95,NW,315,0.0,0.4,80,0.00,,,0.00,WUHU216HW,2013-07-24 07:35:00,
2013-07-24 03:40:00,80.5,73.8,29.95,NW,315,0.0,0.4,80,0.00,,,0.00,WUHU216HW,2013-07-24 07:40:00,
2013-07-24 03:45:00,80.3,73.6,29.95,NW,315,0.0,0.0,80,0.00,,,0.00,WUHU216HW,2013-07-24 07:45:00,
2013-07-24 03:50:00,80.3,73.6,29.95,NW,315,0.0,0.0,80,0.00,,,0.00,WUHU216HW,2013-07-24 07:50:00,
2013-07-24 03:56:00,80.3,73.6,29.94,West,270,0.0,0.4,80,0.00,,,0.00,WUHU216HW,2013-07-24 07:56:00,
2013-07-24 04:01:00,80.3,74.0,29.94,West,270,0.0,0.4,81,0.00,,,0.00,WUHU216HW,2013-07-24 08:01:00,
2013-07-24 04:06:00,80.3,74.0,29.94,West,270,0.0,0.0,81,0.00,,,0.00,WUHU216HW,2013-07-24 08:06:00,
2013-07-24 04:11:00,80.1,73.8,29.95,West,270,0.0,0.2,81,0.00,,,0.00,WUHU216HW,2013-07-24 08:11:00,
2013-07-24 04:16:00,80.1,73.8,29.94,West,270,0.0,0.2,81,0.00,,,0.00,WUHU216HW,2013-07-24 08:16:00,
2013-07-24 04:22:00,80.1,73.8,29.94,West,270,0.0,0.0,81,0.00,,,0.00,WUHU216HW,2013-07-24 08:22:00,
2013-07-24 04:27:00,79.9,73.6,29.94,West,270,0.0,0.0,81,0.00,,,0.00,WUHU216HW,2013-07-24 08:27:00,
2013-07-24 04:32:00,79.9,73.6,29.94,West,270,0.0,0.0,81,0.00,,,0.00,WUHU216HW,2013-07-24 08:32:00,
2013-07-24 04:37:00,79.9,73.6,29.94,West,270,0.0,0.0,81,0.00,,,0.00,WUHU216HW,2013-07-24 08:37:00,
2013-07-24 04:42:00,79.9,74.0,29.94,West,270,0.0,0.0,82,0.00,,,0.00,WUHU216HW,2013-07-24 08:42:00,
2013-07-24 04:47:00,79.7,73.8,29.94,West,270,0.0,0.0,82,0.00,,,0.00,WUHU216HW,2013-07-24 08:47:00,
2013-07-24 04:53:00,79.6,73.6,29.94,West,270,0.0,0.0,82,0.00,,,0.00,WUHU216HW,2013-07-24 08:53:00,
2013-07-24 04:58:00,79.6,73.6,29.94,West,270,0.0,0.0,82,0.00,,,0.00,WUHU216HW,2013-07-24 08:58:00,
2013-07-24 05:03:00,79.6,73.6,29.94,West,270,0.0,0.0,82,0.00,,,0.00,WUHU216HW,2013-07-24 09:03:00,
2013-07-24 05:08:00,79.6,73.3,29.94,West,270,0.0,0.0,81,0.00,,,0.00,WUHU216HW,2013-07-24 09:08:00,
2013-07-24 05:13:00,79.6,73.3,29.94,WSW,248,0.0,0.0,81,0.00,,,0.00,WUHU216HW,2013-07-24 09:13:00,
2013-07-24 05:18:00,79.6,73.6,29.94,WSW,248,0.0,0.0,82,0.00,,,0.00,WUHU216HW,2013-07-24 09:18:00,
2013-07-24 05:23:00,79.4,73.5,29.94,WSW,248,0.0,0.0,82,0.00,,,0.00,WUHU216HW,2013-07-24 09:23:00,
2013-07-24 05:28:00,79.4,73.5,29.94,South,180,0.0,0.0,82,0.00,,,0.00,WUHU216HW,2013-07-24 09:28:00,
2013-07-24 05:33:00,79.2,73.3,29.94,South,180,0.0,0.0,82,0.00,,,0.00,WUHU216HW,2013-07-24 09:33:00,
2013-07-24 05:38:00,79.2,73.3,29.94,South,180,0.0,0.0,82,0.00,,,0.00,WUHU216HW,2013-07-24 09:38:00,
2013-07-24 05:43:00,79.0,73.1,29.94,South,180,0.0,0.0,82,0.00,,,0.00,WUHU216HW,2013-07-24 09:43:00,
2013-07-24 05:48:00,78.8,72.9,29.94,South,180,0.0,0.0,82,0.00,,,0.00,WUHU216HW,2013-07-24 09:48:00,
2013-07-24 05:53:00,78.8,72.9,29.94,South,180,0.0,0.0,82,0.00,,,0.00,WUHU216HW,2013-07-24 09:53:00,
2013-07-24 05:58:00,78.8,72.9,29.94,South,180,0.0,0.0,82,0.00,,,0.00,WUHU216HW,2013-07-24 09:58:00,
2013-07-24 06:03:00,78.8,72.9,29.95,South,180,0.0,0.0,82,0.00,,,0.00,WUHU216HW,2013-07-24 10:03:00,
2013-07-24 06:09:00,78.8,72.9,29.94,South,180,0.0,0.0,82,0.00,,,0.00,WUHU216HW,2013-07-24 10:09:00,
2013-07-24 06:14:00,78.8,72.9,29.95,South,180,0.0,0.0,82,0.00,,,0.00,WUHU216HW,2013-07-24 10:14:00,
2013-07-24 06:19:00,78.8,72.9,29.94,South,180,0.0,0.0,82,0.00,,,0.00,WUHU216HW,2013-07-24 10:19:00,
2013-07-24 06:24:00,78.8,72.9,29.94,South,180,0.0,0.0,82,0.00,,,0.00,WUHU216HW,2013-07-24 10:24:00,
2013-07-24 06:29:00,78.8,72.9,29.94,South,180,0.0,0.0,82,0.00,,,0.00,WUHU216HW,2013-07-24 10:29:00,
2013-07-24 06:34:00,78.7,73.1,29.95,South,180,0.0,0.0,83,0.00,,,0.00,WUHU216HW,2013-07-24 10:34:00,
2013-07-24 06:39:00,78.7,73.1,29.95,South,180,0.0,0.0,83,0.00,,,0.00,WUHU216HW,2013-07-24 10:39:00,
2013-07-24 06:44:00,78.7,73.1,29.95,South,180,0.0,0.0,83,0.00,,,0.00,WUHU216HW,2013-07-24 10:44:00,
2013-07-24 06:49:00,78.5,72.9,29.95,South,180,0.0,0.0,83,0.00,,,0.00,WUHU216HW,2013-07-24 10:49:00,
2013-07-24 06:54:00,78.5,72.9,29.95,South,180,0.0,0.0,83,0.00,,,0.00,WUHU216HW,2013-07-24 10:54:00,
2013-07-24 06:59:00,78.5,72.9,29.96,South,180,0.0,0.0,83,0.00,,,0.00,WUHU216HW,2013-07-24 10:59:00,
2013-07-24 07:04:00,78.3,72.7,29.96,South,180,0.0,0.0,83,0.00,,,0.00,WUHU216HW,2013-07-24 11:04:00,
2013-07-24 07:09:00,78.3,72.7,29.96,South,180,0.0,0.0,83,0.00,,,0.00,WUHU216HW,2013-07-24 11:09:00,
2013-07-24 07:14:00,78.3,72.7,29.96,South,180,0.0,0.0,83,0.00,,,0.00,WUHU216HW,2013-07-24 11:14:00,
2013-07-24 07:19:00,78.3,72.7,29.96,South,180,0.0,0.0,83,0.00,,,0.00,WUHU216HW,2013-07-24 11:19:00,
2013-07-24 07:24:00,78.3,72.7,29.96,South,180,0.0,0.0,83,0.00,,,0.00,WUHU216HW,2013-07-24 11:24:00,
2013-07-24 07:29:00,78.3,72.7,29.96,South,180,0.0,0.0,83,0.00,,,0.00,WUHU216HW,2013-07-24 11:29:00,
2013-07-24 07:35:00,78.3,72.7,29.95,South,180,0.0,0.0,83,0.00,,,0.00,WUHU216HW,2013-07-24 11:35:00,
2013-07-24 07:40:00,78.3,72.7,29.95,South,180,0.0,0.0,83,0.00,,,0.00,WUHU216HW,2013-07-24 11:40:00,
2013-07-24 07:45:00,78.3,72.7,29.95,South,180,0.2,0.2,83,0.00,,,0.00,WUHU216HW,2013-07-24 11:45:00,
2013-07-24 07:50:00,78.3,72.7,29.95,South,180,0.4,0.4,83,0.00,,,0.00,WUHU216HW,2013-07-24 11:50:00,
2013-07-24 07:55:00,78.3,72.4,29.95,SSE,158,0.0,0.9,82,0.00,,,0.00,WUHU216HW,2013-07-24 11:55:00,
2013-07-24 08:00:00,78.7,73.1,29.95,SSE,158,0.4,0.9,83,0.00,,,0.00,WUHU216HW,2013-07-24 12:00:00,
2013-07-24 08:05:00,78.8,73.3,29.95,SSE,158,0.0,0.4,83,0.00,,,0.00,WUHU216HW,2013-07-24 12:05:00,
2013-07-24 08:10:00,78.7,72.7,29.96,SSE,158,0.2,0.2,82,0.00,,,0.00,WUHU216HW,2013-07-24 12:10:00,
2013-07-24 08:15:00,78.8,72.9,29.96,SW,225,0.0,0.4,82,0.00,,,0.00,WUHU216HW,2013-07-24 12:15:00,
2013-07-24 08:20:00,78.8,72.5,29.96,SSW,203,0.0,0.4,81,0.00,,,0.00,WUHU216HW,2013-07-24 12:20:00,
2013-07-24 08:25:00,78.8,72.5,29.96,West,270,1.1,1.1,81,0.00,,,0.00,WUHU216HW,2013-07-24 12:25:00,
2013-07-24 08:30:00,79.2,72.9,29.96,SSW,203,0.2,1.1,81,0.00,,,0.00,WUHU216HW,2013-07-24 12:30:00,
2013-07-24 08:35:00,79.6,73.3,29.97,SSW,203,0.4,2.2,81,0.00,,,0.00,WUHU216HW,2013-07-24 12:35:00,
2013-07-24 08:40:00,79.7,73.5,29.97,SW,225,1.8,3.1,81,0.00,,,0.00,WUHU216HW,2013-07-24 12:40:00,
2013-07-24 08:45:00,80.1,73.4,29.97,South,180,2.5,3.1,80,0.00,,,0.00,WUHU216HW,2013-07-24 12:45:00,
2013-07-24 08:51:00,80.5,73.8,29.98,SSW,203,0.0,2.5,80,0.00,,,0.00,WUHU216HW,2013-07-24 12:51:00,
2013-07-24 08:56:00,80.6,73.6,29.97,SSW,203,1.1,1.8,79,0.00,,,0.00,WUHU216HW,2013-07-24 12:56:00,
2013-07-24 09:01:00,80.8,73.8,29.97,WSW,248,1.1,1.8,79,0.00,,,0.00,WUHU216HW,2013-07-24 13:01:00,
2013-07-24 09:06:00,81.2,74.2,29.98,SSW,203,3.4,3.4,79,0.00,,,0.00,WUHU216HW,2013-07-24 13:06:00,
2013-07-24 09:11:00,81.5,74.9,29.98,SW,225,1.8,3.4,80,0.00,,,0.00,WUHU216HW,2013-07-24 13:11:00,
2013-07-24 09:16:00,81.7,75.1,29.98,NW,315,0.4,2.5,80,0.00,,,0.00,WUHU216HW,2013-07-24 13:16:00,
2013-07-24 09:21:00,81.9,74.8,29.98,SSW,203,0.4,2.7,79,0.00,,,0.00,WUHU216HW,2013-07-24 13:21:00,
2013-07-24 09:26:00,82.3,75.2,29.98,SW,225,0.4,2.9,79,0.00,,,0.00,WUHU216HW,2013-07-24 13:26:00,
2013-07-24 09:31:00,82.4,75.3,29.98,WSW,248,1.8,2.9,79,0.00,,,0.00,WUHU216HW,2013-07-24 13:31:00,
2013-07-24 09:37:00,82.8,75.2,29.98,West,270,1.8,4.3,78,0.00,,,0.00,WUHU216HW,2013-07-24 13:37:00,
2013-07-24 09:42:00,83.0,75.4,29.98,WNW,293,2.5,4.3,78,0.00,,,0.00,WUHU216HW,2013-07-24 13:42:00,
2013-07-24 09:47:00,83.3,75.8,29.99,WSW,248,0.7,2.5,78,0.00,,,0.00,WUHU216HW,2013-07-24 13:47:00,
2013-07-24 09:52:00,83.5,75.5,29.99,WSW,248,1.6,3.4,77,0.00,,,0.00,WUHU216HW,2013-07-24 13:52:00,
2013-07-24 09:57:00,83.9,75.9,29.99,SW,225,1.1,3.4,77,0.00,,,0.00,WUHU216HW,2013-07-24 13:57:00,
2013-07-24 10:02:00,83.9,75.9,29.99,NE,45,0.4,3.6,77,0.00,,,0.00,WUHU216HW,2013-07-24 14:02:00,
2013-07-24 10:07:00,84.2,76.2,29.99,WSW,248,1.3,3.6,77,0.00,,,0.00,WUHU216HW,2013-07-24 14:07:00,
2013-07-24 10:12:00,84.6,76.1,29.99,SSW,203,0.7,1.8,76,0.00,,,0.00,WUHU216HW,2013-07-24 14:12:00,
2013-07-24 10:17:00,85.0,76.5,29.99,SSW,203,3.4,3.4,76,0.00,,,0.00,WUHU216HW,2013-07-24 14:17:00,
2013-07-24 10:22:00,85.3,76.9,29.99,NNW,338,1.1,3.4,76,0.00,,,0.00,WUHU216HW,2013-07-24 14:22:00,
2013-07-24 10:27:00,85.9,77.0,29.99,WSW,248,1.8,3.1,75,0.00,,,0.00,WUHU216HW,2013-07-24 14:27:00,
2013-07-24 10:32:00,86.0,76.9,29.99,West,270,1.6,3.1,74,0.00,,,0.00,WUHU216HW,2013-07-24 14:32:00,
2013-07-24 10:37:00,86.0,76.4,29.99,WSW,248,2.5,2.9,73,0.00,,,0.00,WUHU216HW,2013-07-24 14:37:00,
2013-07-24 10:42:00,85.9,76.7,30.00,West,270,2.5,2.5,74,0.00,,,0.00,WUHU216HW,2013-07-24 14:42:00,
2013-07-24 10:47:00,85.9,76.2,30.00,West,270,2.5,3.4,73,0.00,,,0.00,WUHU216HW,2013-07-24 14:47:00,
2013-07-24 10:53:00,86.2,76.6,30.00,West,270,1.8,3.4,73,0.00,,,0.00,WUHU216HW,2013-07-24 14:53:00,
2013-07-24 10:58:00,86.4,76.3,30.00,North,0,3.4,5.8,72,0.00,,,0.00,WUHU216HW,2013-07-24 14:58:00,
2013-07-24 11:03:00,86.0,76.1,29.99,SW,225,1.1,5.8,72,0.00,,,0.00,WUHU216HW,2013-07-24 15:03:00,
2013-07-24 11:08:00,86.2,76.2,29.99,WSW,248,4.0,4.0,72,0.00,,,0.00,WUHU216HW,2013-07-24 15:08:00,
2013-07-24 11:13:00,86.8,76.7,29.99,SSW,203,1.8,4.0,72,0.00,,,0.00,WUHU216HW,2013-07-24 15:13:00,
2013-07-24 11:18:00,87.3,77.2,29.99,NNW,338,1.1,2.5,72,0.00,,,0.00,WUHU216HW,2013-07-24 15:18:00,
2013-07-24 11:23:00,87.5,77.4,29.99,West,270,0.4,2.5,72,0.00,,,0.00,WUHU216HW,2013-07-24 15:23:00,
2013-07-24 11:28:00,87.8,77.7,29.99,NW,315,4.0,4.5,72,0.00,,,0.00,WUHU216HW,2013-07-24 15:28:00,
2013-07-24 11:33:00,87.8,77.3,29.99,WNW,293,3.1,4.5,71,0.00,,,0.00,WUHU216HW,2013-07-24 15:33:00,
2013-07-24 11:38:00,87.8,77.3,29.99,SW,225,2.0,4.5,71,0.00,,,0.00,WUHU216HW,2013-07-24 15:38:00,
2013-07-24 11:47:00,87.8,77.3,29.99,ENE,68,0.4,4.5,71,0.00,,,0.00,WUHU216HW,2013-07-24 15:47:00,
2013-07-24 11:52:00,88.6,78.0,29.99,WSW,248,2.7,4.0,71,0.00,,,0.00,WUHU216HW,2013-07-24 15:52:00,
2013-07-24 11:57:00,88.6,77.6,29.99,NW,315,3.4,3.4,70,0.00,,,0.00,WUHU216HW,2013-07-24 15:57:00,
2013-07-24 12:03:00,88.6,77.6,29.99,NW,315,3.4,3.4,70,0.00,,,0.00,WUHU216HW,2013-07-24 16:03:00,
2013-07-24 12:08:00,88.2,77.2,29.99,NW,315,1.6,2.9,70,0.00,,,0.00,WUHU216HW,2013-07-24 16:08:00,
2013-07-24 12:13:00,88.0,77.0,29.99,WSW,248,2.7,6.0,70,0.00,,,0.00,WUHU216HW,2013-07-24 16:13:00,
2013-07-24 12:18:00,88.2,77.7,29.99,WSW,248,2.0,6.0,71,0.00,,,0.00,WUHU216HW,2013-07-24 16:18:00,
2013-07-24 12:23:00,88.6,77.6,29.99,SW,225,1.8,4.5,70,0.00,,,0.00,WUHU216HW,2013-07-24 16:23:00,
2013-07-24 12:28:00,88.6,77.1,29.99,NW,315,5.4,5.4,69,0.00,,,0.00,WUHU216HW,2013-07-24 16:28:00,
2013-07-24 12:29:00,88.6,77.1,29.99,NW,315,5.4,5.4,69,0.00,,,0.00,WUHU216HW,2013-07-24 16:29:00,
2013-07-24 12:34:00,88.4,77.4,29.99,WSW,248,4.3,5.4,70,0.00,,,0.00,WUHU216HW,2013-07-24 16:34:00,
2013-07-24 12:40:00,88.4,77.0,29.99,NNW,338,1.8,7.6,69,0.00,,,0.00,WUHU216HW,2013-07-24 16:40:00,
2013-07-24 12:45:00,88.7,77.3,29.99,NW,315,2.7,3.6,69,0.00,,,0.00,WUHU216HW,2013-07-24 16:45:00,
2013-07-24 12:50:00,89.1,77.2,29.99,SW,225,1.6,6.5,68,0.00,,,0.00,WUHU216HW,2013-07-24 16:50:00,
2013-07-24 12:55:00,89.1,77.2,30.00,NNW,338,6.3,6.5,68,0.00,,,0.00,WUHU216HW,2013-07-24 16:55:00,
2013-07-24 13:00:00,88.7,76.4,30.00,WNW,293,1.1,6.3,67,0.00,,,0.00,WUHU216HW,2013-07-24 17:00:00,
2013-07-24 13:05:00,88.7,76.9,30.00,SW,225,1.6,3.1,68,0.00,,,0.00,WUHU216HW,2013-07-24 17:05:00,
2013-07-24 13:10:00,88.7,76.4,30.00,West,270,1.1,6.3,67,0.00,,,0.00,WUHU216HW,2013-07-24 17:10:00,
2013-07-24 13:15:00,88.7,76.9,30.00,SW,225,2.2,6.3,68,0.00,,,0.00,WUHU216HW,2013-07-24 17:15:00,
2013-07-24 13:20:00,89.3,77.0,29.99,SSW,203,2.5,4.7,67,0.00,,,0.00,WUHU216HW,2013-07-24 17:20:00,
2013-07-24 13:25:00,89.5,77.0,29.99,South,180,1.1,4.7,67,0.00,,,0.00,WUHU216HW,2013-07-24 17:25:00,
2013-07-24 13:30:00,89.6,77.2,29.99,West,270,1.8,7.6,67,0.00,,,0.00,WUHU216HW,2013-07-24 17:30:00,
2013-07-24 13:35:00,89.8,77.4,29.99,West,270,1.1,7.6,67,0.00,,,0.00,WUHU216HW,2013-07-24 17:35:00,
2013-07-24 13:41:00,89.8,77.4,29.99,SSW,203,1.3,4.3,67,0.00,,,0.00,WUHU216HW,2013-07-24 17:41:00,
2013-07-24 13:46:00,89.8,77.0,29.99,SW,225,1.1,4.3,66,0.00,,,0.00,WUHU216HW,2013-07-24 17:46:00,
2013-07-24 13:51:00,89.6,76.8,29.99,SW,225,1.1,4.5,66,0.00,,,0.00,WUHU216HW,2013-07-24 17:51:00,
2013-07-24 13:56:00,89.8,77.4,29.99,South,180,1.8,6.3,67,0.00,,,0.00,WUHU216HW,2013-07-24 17:56:00,
2013-07-24 14:01:00,90.7,78.2,29.99,SSW,203,2.2,6.3,67,0.00,,,0.00,WUHU216HW,2013-07-24 18:01:00,
2013-07-24 14:06:00,90.7,77.3,29.99,West,270,3.1,5.4,65,0.00,,,0.00,WUHU216HW,2013-07-24 18:06:00,
2013-07-24 14:11:00,90.7,77.3,29.98,WSW,248,2.2,5.4,65,0.00,,,0.00,WUHU216HW,2013-07-24 18:11:00,
2013-07-24 14:16:00,90.2,76.8,29.98,North,0,1.6,3.4,65,0.00,,,0.00,WUHU216HW,2013-07-24 18:16:00,
2013-07-24 14:21:00,90.2,77.8,29.98,SSW,203,0.7,3.4,67,0.00,,,0.00,WUHU216HW,2013-07-24 18:21:00,
2013-07-24 14:26:00,90.7,78.2,29.97,South,180,0.2,3.4,67,0.00,,,0.00,WUHU216HW,2013-07-24 18:26:00,
2013-07-24 14:32:00,90.7,77.8,29.97,WNW,293,2.9,4.7,66,0.00,,,0.00,WUHU216HW,2013-07-24 18:32:00,
2013-07-24 14:37:00,90.2,77.3,29.97,NW,315,1.6,4.7,66,0.00,,,0.00,WUHU216HW,2013-07-24 18:37:00,
2013-07-24 14:42:00,89.6,76.8,29.97,NNE,23,4.3,4.7,66,0.00,,,0.00,WUHU216HW,2013-07-24 18:42:00,
2013-07-24 14:47:00,89.6,77.2,29.96,WNW,293,0.9,4.7,67,0.00,,,0.00,WUHU216HW,2013-07-24 18:47:00,
2013-07-24 14:52:00,89.6,77.2,29.96,West,270,6.3,6.3,67,0.00,,,0.00,WUHU216HW,2013-07-24 18:52:00,
2013-07-24 14:57:00,89.6,76.8,29.96,SW,225,1.8,6.3,66,0.00,,,0.00,WUHU216HW,2013-07-24 18:57:00,
2013-07-24 15:02:00,90.0,76.7,29.96,West,270,5.4,5.4,65,0.00,,,0.00,WUHU216HW,2013-07-24 19:02:00,
2013-07-24 15:07:00,90.0,76.7,29.96,NNW,338,3.4,5.4,65,0.00,,,0.00,WUHU216HW,2013-07-24 19:07:00,
2013-07-24 15:12:00,90.0,76.7,29.96,SSW,203,1.1,4.0,65,0.00,,,0.00,WUHU216HW,2013-07-24 19:12:00,
2013-07-24 15:17:00,90.0,76.1,29.96,WSW,248,2.5,5.1,64,0.00,,,0.00,WUHU216HW,2013-07-24 19:17:00,
2013-07-24 15:22:00,89.8,76.5,29.96,NNW,338,1.1,5.1,65,0.00,,,0.00,WUHU216HW,2013-07-24 19:22:00,
2013-07-24 15:27:00,89.8,77.0,29.96,NNW,338,2.0,3.4,66,0.00,,,0.00,WUHU216HW,2013-07-24 19:27:00,
2013-07-24 15:32:00,89.8,76.5,29.96,SSW,203,1.3,2.5,65,0.00,,,0.00,WUHU216HW,2013-07-24 19:32:00,
2013-07-24 15:37:00,89.8,77.0,29.95,WSW,248,1.1,3.4,66,0.00,,,0.00,WUHU216HW,2013-07-24 19:37:00,
2013-07-24 15:42:00,90.0,76.7,29.95,NNW,338,3.1,3.4,65,0.00,,,0.00,WUHU216HW,2013-07-24 19:42:00,
2013-07-24 15:48:00,90.0,76.7,29.95,NW,315,2.0,4.7,65,0.00,,,0.00,WUHU216HW,2013-07-24 19:48:00,
2013-07-24 15:53:00,90.0,76.7,29.95,WSW,248,1.1,4.7,65,0.00,,,0.00,WUHU216HW,2013-07-24 19:53:00,
2013-07-24 15:58:00,90.0,77.1,29.95,SSW,203,0.9,2.5,66,0.00,,,0.00,WUHU216HW,2013-07-24 19:58:00,
2013-07-24 16:03:00,90.0,77.1,29.95,NW,315,1.6,2.5,66,0.00,,,0.00,WUHU216HW,2013-07-24 20:03:00,
2013-07-24 16:08:00,90.0,76.7,29.95,West,270,4.3,4.3,65,0.00,,,0.00,WUHU216HW,2013-07-24 20:08:00,
2013-07-24 16:13:00,89.6,76.3,29.94,SSW,203,3.6,7.6,65,0.00,,,0.00,WUHU216HW,2013-07-24 20:13:00,
2013-07-24 16:18:00,89.3,76.0,29.94,WSW,248,2.9,7.6,65,0.00,,,0.00,WUHU216HW,2013-07-24 20:18:00,
2013-07-24 16:23:00,89.5,76.6,29.94,SSW,203,0.4,6.0,66,0.00,,,0.00,WUHU216HW,2013-07-24 20:23:00,
2013-07-24 16:28:00,89.6,76.3,29.94,NW,315,2.2,3.8,65,0.00,,,0.00,WUHU216HW,2013-07-24 20:28:00,
2013-07-24 16:33:00,89.6,75.9,29.94,North,0,2.2,5.8,64,0.00,,,0.00,WUHU216HW,2013-07-24 20:33:00,
2013-07-24 16:38:00,89.3,76.0,29.94,SW,225,3.8,5.8,65,0.00,,,0.00,WUHU216HW,2013-07-24 20:38:00,
2013-07-24 16:43:00,89.3,76.0,29.94,SW,225,1.1,4.3,65,0.00,,,0.00,WUHU216HW,2013-07-24 20:43:00,
2013-07-24 16:48:00,89.6,76.3,29.94,SSW,203,1.8,4.3,65,0.00,,,0.00,WUHU216HW,2013-07-24 20:48:00,
2013-07-24 16:53:00,89.5,76.1,29.94,NNW,338,2.5,4.3,65,0.00,,,0.00,WUHU216HW,2013-07-24 20:53:00,
2013-07-24 16:58:00,89.1,76.2,29.94,North,0,0.4,3.6,66,0.00,,,0.00,WUHU216HW,2013-07-24 20:58:00,
2013-07-24 17:03:00,89.3,76.4,29.94,WSW,248,4.0,4.0,66,0.00,,,0.00,WUHU216HW,2013-07-24 21:03:00,
2013-07-24 17:08:00,89.5,76.6,29.93,NNW,338,1.1,4.0,66,0.00,,,0.00,WUHU216HW,2013-07-24 21:08:00,
2013-07-24 17:13:00,89.5,76.6,29.94,NNW,338,2.9,3.8,66,0.00,,,0.00,WUHU216HW,2013-07-24 21:13:00,
2013-07-24 17:18:00,89.3,76.4,29.93,WSW,248,2.5,3.8,66,0.00,,,0.00,WUHU216HW,2013-07-24 21:18:00,
2013-07-24 17:23:00,89.1,76.2,29.93,SSW,203,2.2,3.4,66,0.00,,,0.00,WUHU216HW,2013-07-24 21:23:00,
2013-07-24 17:29:00,88.9,75.6,29.93,NNE,23,2.0,2.9,65,0.00,,,0.00,WUHU216HW,2013-07-24 21:29:00,
2013-07-24 17:34:00,88.9,75.6,29.93,West,270,3.4,4.7,65,0.00,,,0.00,WUHU216HW,2013-07-24 21:34:00,
2013-07-24 17:39:00,88.9,76.2,29.93,South,180,1.8,4.7,66,0.00,,,0.00,WUHU216HW,2013-07-24 21:39:00,
2013-07-24 17:44:00,88.9,76.2,29.93,NNW,338,2.2,3.4,66,0.00,,,0.00,WUHU216HW,2013-07-24 21:44:00,
2013-07-24 17:49:00,88.7,76.0,29.93,NW,315,1.1,2.7,66,0.00,,,0.00,WUHU216HW,2013-07-24 21:49:00,
2013-07-24 17:54:00,88.6,76.2,29.92,WSW,248,0.9,4.0,67,0.00,,,0.00,WUHU216HW,2013-07-24 21:54:00,
2013-07-24 17:59:00,88.7,76.4,29.93,WSW,248,1.3,4.0,67,0.00,,,0.00,WUHU216HW,2013-07-24 21:59:00,
2013-07-24 18:04:00,88.7,76.0,29.93,WSW,248,2.9,3.4,66,0.00,,,0.00,WUHU216HW,2013-07-24 22:04:00,
2013-07-24 18:09:00,88.4,75.6,29.93,WSW,248,1.8,3.4,66,0.00,,,0.00,WUHU216HW,2013-07-24 22:09:00,
2013-07-24 18:14:00,88.2,75.9,29.93,WSW,248,2.0,4.0,67,0.00,,,0.00,WUHU216HW,2013-07-24 22:14:00,
2013-07-24 18:19:00,88.0,75.7,29.93,WSW,248,0.4,4.0,67,0.00,,,0.00,WUHU216HW,2013-07-24 22:19:00,
2013-07-24 18:24:00,88.0,75.7,29.93,WSW,248,1.8,3.4,67,0.00,,,0.00,WUHU216HW,2013-07-24 22:24:00,
2013-07-24 18:29:00,87.8,75.5,29.93,SW,225,2.2,4.0,67,0.00,,,0.00,WUHU216HW,2013-07-24 22:29:00,
2013-07-24 18:34:00,87.7,75.3,29.93,SSW,203,0.7,4.0,67,0.00,,,0.00,WUHU216HW,2013-07-24 22:34:00,
2013-07-24 18:39:00,87.5,75.2,29.93,West,270,1.8,4.0,67,0.00,,,0.00,WUHU216HW,2013-07-24 22:39:00,
2013-07-24 18:44:00,87.5,75.2,29.93,South,180,0.4,3.4,67,0.00,,,0.00,WUHU216HW,2013-07-24 22:44:00,
2013-07-24 18:49:00,87.3,75.0,29.93,West,270,2.0,3.4,67,0.00,,,0.00,WUHU216HW,2013-07-24 22:49:00,
2013-07-24 18:55:00,87.3,75.4,29.93,SE,135,1.1,2.2,68,0.00,,,0.00,WUHU216HW,2013-07-24 22:55:00,
2013-07-24 19:00:00,87.3,75.4,29.93,SSW,203,2.5,2.5,68,0.00,,,0.00,WUHU216HW,2013-07-24 23:00:00,
2013-07-24 19:05:00,87.1,74.9,29.93,SSW,203,1.1,2.5,67,0.00,,,0.00,WUHU216HW,2013-07-24 23:05:00,
2013-07-24 19:10:00,86.9,75.2,29.93,WSW,248,1.3,3.4,68,0.00,,,0.00,WUHU216HW,2013-07-24 23:10:00,
2013-07-24 19:15:00,86.9,75.2,29.93,West,270,0.9,3.4,68,0.00,,,0.00,WUHU216HW,2013-07-24 23:15:00,
2013-07-24 19:20:00,86.6,74.8,29.94,SE,135,0.9,2.9,68,0.00,,,0.00,WUHU216HW,2013-07-24 23:20:00,
2013-07-24 19:25:00,86.4,74.6,29.94,West,270,2.7,3.4,68,0.00,,,0.00,WUHU216HW,2013-07-24 23:25:00,
2013-07-24 19:31:00,86.0,73.8,29.93,West,270,2.0,3.4,67,0.00,,,0.00,WUHU216HW,2013-07-24 23:31:00,
2013-07-24 19:36:00,85.9,73.6,29.93,WSW,248,1.8,2.9,67,0.00,,,0.00,WUHU216HW,2013-07-24 23:36:00,
2013-07-24 19:41:00,85.7,74.0,29.94,SW,225,2.5,2.5,68,0.00,,,0.00,WUHU216HW,2013-07-24 23:41:00,
2013-07-24 19:46:00,85.7,74.0,29.94,WSW,248,1.1,2.5,68,0.00,,,0.00,WUHU216HW,2013-07-24 23:46:00,
2013-07-24 19:51:00,85.5,73.8,29.94,South,180,1.6,1.6,68,0.00,,,0.00,WUHU216HW,2013-07-24 23:51:00,
2013-07-24 19:56:00,85.5,74.3,29.94,WNW,293,0.7,1.6,69,0.00,,,0.00,WUHU216HW,2013-07-24 23:56:00,
2013-07-24 20:02:00,85.3,74.1,29.94,West,270,0.4,1.8,69,0.00,,,0.00,WUHU216HW,2013-07-25 00:02:00,
2013-07-24 20:07:00,85.3,74.1,29.94,West,270,1.1,1.8,69,0.00,,,0.00,WUHU216HW,2013-07-25 00:07:00,
2013-07-24 20:12:00,85.1,73.9,29.94,WNW,293,1.6,3.4,69,0.00,,,0.00,WUHU216HW,2013-07-25 00:12:00,
2013-07-24 20:17:00,85.0,73.7,29.95,West,270,0.4,3.4,69,0.00,,,0.00,WUHU216HW,2013-07-25 00:17:00,
2013-07-24 20:22:00,85.0,74.2,29.95,WSW,248,1.8,2.5,70,0.00,,,0.00,WUHU216HW,2013-07-25 00:22:00,
2013-07-24 20:27:00,84.8,74.0,29.94,West,270,1.3,2.5,70,0.00,,,0.00,WUHU216HW,2013-07-25 00:27:00,
2013-07-24 20:32:00,84.6,73.8,29.95,SW,225,1.1,1.3,70,0.00,,,0.00,WUHU216HW,2013-07-25 00:32:00,
2013-07-24 20:37:00,84.6,73.8,29.95,WNW,293,1.6,1.8,70,0.00,,,0.00,WUHU216HW,2013-07-25 00:37:00,
2013-07-24 20:42:00,84.6,73.8,29.95,West,270,0.9,1.8,70,0.00,,,0.00,WUHU216HW,2013-07-25 00:42:00,
2013-07-24 20:48:00,84.4,73.6,29.95,WSW,248,1.1,2.9,70,0.00,,,0.00,WUHU216HW,2013-07-25 00:48:00,
2013-07-24 20:53:00,84.2,73.4,29.95,West,270,0.2,2.9,70,0.00,,,0.00,WUHU216HW,2013-07-25 00:53:00,
2013-07-24 20:58:00,84.1,73.3,29.95,WSW,248,1.3,2.0,70,0.00,,,0.00,WUHU216HW,2013-07-25 00:58:00,
2013-07-24 21:03:00,84.1,73.3,29.95,NW,315,0.7,2.9,70,0.00,,,0.00,WUHU216HW,2013-07-25 01:03:00,
2013-07-24 21:08:00,83.9,73.4,29.95,NW,315,1.3,2.9,71,0.00,,,0.00,WUHU216HW,2013-07-25 01:08:00,
2013-07-24 21:13:00,83.9,73.4,29.96,WNW,293,0.9,1.8,71,0.00,,,0.00,WUHU216HW,2013-07-25 01:13:00,
2013-07-24 21:18:00,83.9,73.4,29.96,West,270,2.7,2.7,71,0.00,,,0.00,WUHU216HW,2013-07-25 01:18:00,
2013-07-24 21:23:00,83.9,73.4,29.96,WSW,248,0.4,2.7,71,0.00,,,0.00,WUHU216HW,2013-07-25 01:23:00,
2013-07-24 21:28:00,83.7,73.7,29.96,SW,225,0.7,1.8,72,0.00,,,0.00,WUHU216HW,2013-07-25 01:28:00,
2013-07-24 21:33:00,83.7,73.7,29.96,West,270,0.2,1.8,72,0.00,,,0.00,WUHU216HW,2013-07-25 01:33:00,
2013-07-24 21:38:00,83.7,73.7,29.96,West,270,1.8,1.8,72,0.00,,,0.00,WUHU216HW,2013-07-25 01:38:00,
2013-07-24 21:43:00,83.7,73.7,29.96,NW,315,0.0,1.8,72,0.00,,,0.00,WUHU216HW,2013-07-25 01:43:00,
2013-07-24 21:48:00,83.5,73.5,29.96,WNW,293,0.4,1.8,72,0.00,,,0.00,WUHU216HW,2013-07-25 01:48:00,
2013-07-24 21:54:00,83.5,73.5,29.96,West,270,1.1,2.5,72,0.00,,,0.00,WUHU216HW,2013-07-25 01:54:00,
2013-07-24 21:58:00,83.5,73.5,29.96,South,180,1.8,2.5,72,0.00,,,0.00,WUHU216HW,2013-07-25 01:58:00,
2013-07-24 22:04:00,83.5,73.5,29.96,WSW,248,0.0,2.0,72,0.00,,,0.00,WUHU216HW,2013-07-25 02:04:00,
2013-07-24 22:09:00,83.5,73.5,29.96,West,270,1.1,1.1,72,0.00,,,0.00,WUHU216HW,2013-07-25 02:09:00,
2013-07-24 22:14:00,83.3,73.4,29.96,WSW,248,0.7,1.1,72,0.00,,,0.00,WUHU216HW,2013-07-25 02:14:00,
2013-07-24 22:19:00,83.3,73.4,29.96,West,270,1.1,1.1,72,0.00,,,0.00,WUHU216HW,2013-07-25 02:19:00,
2013-07-24 22:24:00,83.3,73.4,29.96,WSW,248,0.4,1.1,72,0.00,,,0.00,WUHU216HW,2013-07-25 02:24:00,
2013-07-24 22:29:00,83.3,73.8,29.96,WNW,293,0.4,0.7,73,0.00,,,0.00,WUHU216HW,2013-07-25 02:29:00,
2013-07-24 22:34:00,83.2,73.6,29.96,West,270,0.0,0.7,73,0.00,,,0.00,WUHU216HW,2013-07-25 02:34:00,
2013-07-24 22:39:00,83.2,73.6,29.96,WSW,248,0.0,0.4,73,0.00,,,0.00,WUHU216HW,2013-07-25 02:39:00,
2013-07-24 22:44:00,83.2,73.6,29.96,WSW,248,0.0,0.9,73,0.00,,,0.00,WUHU216HW,2013-07-25 02:44:00,
2013-07-24 22:49:00,83.2,73.6,29.96,WSW,248,0.0,0.9,73,0.00,,,0.00,WUHU216HW,2013-07-25 02:49:00,
2013-07-24 22:54:00,83.2,74.0,29.96,West,270,1.6,1.6,74,0.00,,,0.00,WUHU216HW,2013-07-25 02:54:00,
2013-07-24 22:59:00,83.2,74.0,29.96,West,270,0.2,1.6,74,0.00,,,0.00,WUHU216HW,2013-07-25 02:59:00,
2013-07-24 23:04:00,83.0,73.8,29.96,West,270,1.1,1.1,74,0.00,,,0.00,WUHU216HW,2013-07-25 03:04:00,
2013-07-24 23:09:00,83.0,73.8,29.96,WSW,248,0.4,1.3,74,0.00,,,0.00,WUHU216HW,2013-07-25 03:09:00,
2013-07-24 23:14:00,83.0,73.8,29.96,West,270,0.0,1.3,74,0.00,,,0.00,WUHU216HW,2013-07-25 03:14:00,
2013-07-24 23:19:00,83.0,73.8,29.96,WSW,248,0.4,1.1,74,0.00,,,0.00,WUHU216HW,2013-07-25 03:19:00,
2013-07-24 23:24:00,83.0,73.8,29.96,West,270,0.4,1.1,74,0.00,,,0.00,WUHU216HW,2013-07-25 03:24:00,
2013-07-24 23:30:00,82.8,73.6,29.96,WSW,248,0.4,1.1,74,0.00,,,0.00,WUHU216HW,2013-07-25 03:30:00,
2013-07-24 23:35:00,82.8,73.6,29.96,West,270,0.0,1.1,74,0.00,,,0.00,WUHU216HW,2013-07-25 03:35:00,
2013-07-24 23:40:00,82.8,73.6,29.95,WSW,248,0.4,0.4,74,0.00,,,0.00,WUHU216HW,2013-07-25 03:40:00,
2013-07-24 23:45:00,82.8,74.1,29.95,West,270,1.1,1.8,75,0.00,,,0.00,WUHU216HW,2013-07-25 03:45:00,
2013-07-24 23:50:00,82.8,74.1,29.95,West,270,0.7,1.8,75,0.00,,,0.00,WUHU216HW,2013-07-25 03:50:00,
2013-07-24 23:55:00,82.8,74.1,29.95,WSW,248,0.0,1.8,75,0.00,,,0.00,WUHU216HW,2013-07-25 03:55:00,